Tracking 28790 objects as of 19-Apr-2024
HD Live streaming from Space Station
objects crossing your sky now

FENGYUN 1C DEB

Track FENGYUN 1C DEB now!
10-day predictions


NORAD ID: 36695
Int'l Code: 1999-025DZR
Perigee: 573.5 km
Apogee: 954.3 km
Inclination: 98.2 °
Period: 100.0 minutes
Semi major axis: 7134 km
RCS: 0.0082 m2 (small)
Launch date: May 10, 1999
Source: People's Republic of China (PRC)
Launch site: Taiyaun Space Center, China (TSC)

Note: This is SATELLITE DEBRIS
Your satellite tracking list
Your tracking list is empty




NASA's NSSDC Master Catalog

Two Line Element Set (TLE):
1 36695U 99025DZR 24106.71598463  .00001257  00000-0  26941-3 0  9990
2 36695  98.1754 105.0437 0266841 170.0230 190.6409 14.40537246808321
Source of the keplerian elements: AFSPC